Location: Wharf Road Observatory
(44.7802°N, 65.6070°W)
Time: 12:44:47
(UTC-04:00)

Envisat - Visible Passes

Search period start: 03 December 2021 00:00
Search period end: 13 December 2021 00:00
Orbit: 764 x 766 km, 98.2° (Epoch: 02 December)

Date Brightness Start Highest point End Pass type
(mag) Time Alt. Az. Time Alt. Az. Time Alt. Az.
03 Dec 6.1 03:55:26 10° ENE 03:56:59 11° E 03:58:32 10° ESE visible
03 Dec 2.9 05:31:36 10° NNE 05:36:43 89° ESE 05:41:48 10° SSW visible
04 Dec 4.2 04:54:57 10° NNE 04:59:46 42° E 05:04:33 10° SSE visible
04 Dec 3.9 06:34:22 10° N 06:38:35 27° WNW 06:42:46 10° WSW visible
04 Dec 5.9 17:52:28 10° SW 17:55:34 16° W 17:58:42 10° NW visible
05 Dec 5.4 04:18:56 10° NE 04:22:37 20° E 04:26:17 10° SE visible
05 Dec 3.0 05:57:00 10° N 06:01:58 54° WNW 06:06:54 10° SSW visible
05 Dec 4.9 17:13:47 10° SSW 17:18:22 34° W 17:23:00 10° NNW visible
06 Dec 3.2 05:20:04 10° NNE 05:25:10 72° ESE 05:30:13 10° S visible
06 Dec 4.4 07:00:26 10° NNW 07:03:35 17° WNW 07:06:44 10° W visible
07 Dec 4.6 04:43:33 10° NNE 04:48:09 33° E 04:52:42 10° SSE visible
07 Dec 3.6 06:22:36 10° N 06:27:07 33° WNW 06:31:36 10° SW visible
07 Dec 5.8 17:40:10 10° SW 17:43:53 20° W 17:47:39 10° NW visible
08 Dec 5.7 04:07:54 10° NE 04:10:56 16° E 04:13:57 10° SE visible
08 Dec 2.9 05:45:23 10° N 05:50:27 68° WNW 05:55:29 10° SSW visible
09 Dec 3.6 05:08:33 10° NNE 05:13:34 57° E 05:18:33 10° S visible
09 Dec 4.2 06:48:29 10° NNW 06:52:10 21° WNW 06:55:51 10° WSW visible
09 Dec 6.2 18:07:45 10° WSW 18:09:31 12° W 18:11:17 10° WNW visible
10 Dec 5.0 04:32:13 10° NE 04:36:31 27° E 04:40:45 10° SSE visible
10 Dec 3.3 06:10:54 10° N 06:15:38 40° WNW 06:20:21 10° SW visible
10 Dec 5.5 17:28:03 10° SSW 17:32:13 26° W 17:36:26 10° NW visible
11 Dec 6.0 03:57:12 10° ENE 03:59:13 12° E 04:01:15 10° ESE visible
11 Dec 2.9 05:33:47 10° NNE 05:38:54 85° WNW 05:43:59 10° SSW visible
11 Dec 4.6 07:14:56 10° NNW 07:17:07 13° WNW 07:19:19 10° W visible
12 Dec 4.0 04:57:05 10° NNE 05:01:58 45° E 05:06:49 10° S visible
12 Dec 3.9 06:36:38 10° N 06:40:44 25° WNW 06:44:48 10° WSW visible
12 Dec 6.0 17:54:55 10° SW 17:57:48 15° W 18:00:41 10° NW visible
